Weather Service Report


562 
ASUS43 KIND 260209
RWRIN 

WEATHER ROUNDUP FOR INDIANA
NATIONAL WEATHER SERVICE INDIANAPOLIS IN
900 PM EST SUN JAN 25 2015

NOTE: "FAIR" INDICATES FEW OR NO CLOUDS BELOW 12,000 FEET WITH NO
SIGNIFICANT WEATHER AND/OR OBSTRUCTIONS TO VISIBILITY.

* - STATION DOES NOT REPORT WEATHER SUCH AS PRECIPITATION OR FOG.

+ - STATION NOT QUALITY CONTROLLED BY THE NATIONAL WEATHER SERVICE.
    USE DATA WITH CAUTION...ESPECIALLY DEWPOINT AND RELATIVE
    HUMIDITY OBSERVATIONS.

INZ001>003-010>013-019-020-260300-
NORTHWEST INDIANA
  
CITY           SKY/WX    TMP DP  RH WIND       PRES   REMARKS
KNOX *+        CLOUDY    24  14  63 NE12      29.92R WCI  13          
LA PORTE +     CLOUDY    26  22  83 NE9       29.93S WCI  17          
MICHIGAN CITY+ CLOUDY    27  14  59 NE7       29.95S WCI  19          
MONTICELLO +   FLURRIES  26  23  89 NE12G17   29.89R WCI  15          
RENSSELAER +   FLURRIES  28  27  93 N14       29.92R WCI  17          
VALPARAISO     CLOUDY    24  19  81 NE9       29.93S WCI  14          

$$

LMZ046-743>745-260300-
SOUTHERN LAKE MICHIGAN
  
STATION/POSITION TIME  TEMP WIND        PRES
                       AIR  DIR/SP/G
                 (UTC) (F)  (DEG/KT/KT) (MB)
MICHIGAN CITY    0200   25   20/ 18/ 20   N/A

$$

INZ004-005-014>016-021>024-260300-
NORTH CENTRAL INDIANA
  
CITY           SKY/WX    TMP DP  RH WIND       PRES   REMARKS
GOSHEN         CLOUDY    23  18  81 NE12      29.91R WCI  12          
LOGANSPORT +   CLOUDY    25  21  86 NE6       29.89R WCI  18          
PERU/GRISSOM   CLOUDY    22  19  85 NE18      29.86R WCI   8          
ROCHESTER +    MOCLDY    28  23  80 NE10G21   29.90R WCI  19          
SOUTH BEND     CLOUDY    25  15  66 VRB7      29.93S WCI  17          
WARSAW +       CLOUDY    23  19  86 NE14G22   29.89S WCI  11          

$$

INZ006>009-017-018-025>027-260300-
NORTHEAST INDIANA
  
CITY           SKY/WX    TMP DP  RH WIND       PRES   REMARKS
ANGOLA *+      MOCLDY    21  16  79 NE12      29.89S WCI   9          
AUBURN +       LGT SNOW  21  18  86 NE14G20   29.90R WCI   8          
FORT WAYNE     LGT SNOW  20  16  84 NE22G29   29.89R FOG     WCI   3  
HUNTINGTON +   LGT SNOW  20  13  75 NE14G23   29.87S WCI   7          

$$

INZ028-029-035-036-043>045-051>053-260300-
WEST CENTRAL INDIANA
  
CITY           SKY/WX    TMP DP  RH WIND       PRES   REMARKS
GREENCASTLE +  CLOUDY    28  23  80 N17G23    29.80R WCI  16          
LAFAYETTE      CLOUDY    26  21  81 NE15G24   29.88R WCI  14          
TERRE HAUTE    CLOUDY    30  26  85 N18G26    29.81R WCI  18          

$$

INZ030>032-037>040-046>048-054>057-064-065-260300-
CENTRAL INDIANA
  
CITY           SKY/WX    TMP DP  RH WIND       PRES   REMARKS
CP ATTERBURY + LGT SNOW  32  30  93 N15G22    29.76R WCI  22          
GREENWOOD *+   CLOUDY    27  21  80 N15       29.78  WCI  15          
INDIANAPOLIS   FLURRIES  23  20  88 NE20G33   29.78R WCI   8          
-EAGLE CREEK   CLOUDY    24  20  84 NE15G25   29.79R WCI  11          
KOKOMO *+      CLOUDY    21  18  86 NE17      29.85S WCI   7          
MARION +       CLOUDY    21  17  86 NE22G28   29.84S WCI   4          
MT COMFORT *+  CLOUDY    25  23  93 N18G24    29.80R WCI  11          
SHELBYVILLE    FLURRIES  28  23  81 N17G26    29.76R WCI  16          
ZIONSVILLE +   CLOUDY    25  20  82 NE22G29   29.82R WCI  10          

$$

INZ033-034-041-042-049-050-058-059-260300-
EAST CENTRAL INDIANA
  
CITY           SKY/WX    TMP DP  RH WIND       PRES   REMARKS
MUNCIE         LGT SNOW  21  17  84 NE17G26   29.81R VSB 1   WCI   7  

$$

INZ060-061-067>069-081>083-085>088-260300-
SOUTHWEST INDIANA
  
CITY           SKY/WX    TMP DP  RH WIND       PRES   REMARKS
EVANSVILLE     CLOUDY    42  39  89 NW8       29.72R                  
HUNTINGBURG *+ CLOUDY    39  36  87 NW3       29.70R                  
WASHINGTON +   DRIZZLE   38  34  87 N13       29.71R                  

$$

INZ062-063-066-070>080-084-089>092-260300-
SOUTH CENTRAL AND SOUTHEAST INDIANA
  
CITY           SKY/WX    TMP DP  RH WIND       PRES   REMARKS
BLOOMINGTON    MIX PCPN  33  32  96 N16G23    29.73R FOG     WCI  23  
NORTH VERNON + LGT RAIN  37  37 100 N5        29.70                   
SEYMOUR +      LGT RAIN  37  37 100 N14       29.70R                  

$$


Return to Home page


Western Regional Climate Center, wrcc@dri.edu